Time,TemperatureF,DewpointF,PressureIn,WindDirection,WindDirectionDegrees,WindSpeedMPH,WindSpeedGustMPH,Humidity,HourlyPrecipIn,Conditions,Clouds,dailyrainin,SoftwareType,DateUTC
2013-04-09 07:25:00,20.3,13.7,29.62,SE,135,2.0,6.0,75,0.00,,---,0.00,VWS V14.01,2013-04-09 13:25:00,
2013-04-09 07:37:00,20.3,13.7,29.62,ESE,118,6.0,6.0,75,0.00,,---,0.00,VWS V14.01,2013-04-09 13:37:00,
2013-04-09 07:39:00,20.2,13.2,29.62,SSE,157,4.0,6.0,74,0.00,,---,0.00,VWS V14.01,2013-04-09 13:39:00,
2013-04-09 07:44:00,20.0,13.1,29.62,SSE,151,2.0,11.0,74,0.00,,---,0.00,VWS V14.01,2013-04-09 13:44:00,
2013-04-09 07:49:00,19.8,12.6,29.62,SE,145,1.0,8.0,73,0.00,,---,0.00,VWS V14.01,2013-04-09 13:49:00,
2013-04-09 07:54:00,19.7,12.5,29.63,SE,138,1.0,7.0,73,0.00,,---,0.00,VWS V14.01,2013-04-09 13:54:00,
2013-04-09 07:59:00,19.7,12.1,29.63,SSE,158,1.0,7.0,72,0.00,,---,0.00,VWS V14.01,2013-04-09 13:59:00,
2013-04-09 08:04:00,19.7,12.1,29.64,South,171,1.0,5.0,72,0.00,,---,0.00,VWS V14.01,2013-04-09 14:04:00,
2013-04-09 08:09:00,19.7,12.1,29.63,SSW,194,9.0,10.0,72,0.00,,---,0.00,VWS V14.01,2013-04-09 14:09:00,
2013-04-09 08:14:00,19.7,12.1,29.63,SSW,202,16.0,16.0,72,0.00,,---,0.00,VWS V14.01,2013-04-09 14:14:00,
2013-04-09 08:19:00,19.5,11.6,29.62,South,188,8.0,9.0,71,0.00,,---,0.00,VWS V14.01,2013-04-09 14:19:00,
2013-04-09 08:24:00,19.3,11.4,29.65,SSW,197,9.0,16.0,71,0.00,,---,0.00,VWS V14.01,2013-04-09 14:24:00,
2013-04-09 08:29:00,19.0,10.8,29.65,South,186,8.0,15.0,70,0.00,,---,0.00,VWS V14.01,2013-04-09 14:29:00,
2013-04-09 08:34:00,18.8,10.6,29.66,SSW,200,7.0,15.0,70,0.00,,---,0.00,VWS V14.01,2013-04-09 14:34:00,
2013-04-09 08:39:00,18.5,10.7,29.66,SSW,192,7.0,11.0,71,0.00,,---,0.00,VWS V14.01,2013-04-09 14:39:00,
2013-04-09 08:44:00,18.3,11.1,29.66,South,188,3.0,6.0,73,0.00,,---,0.00,VWS V14.01,2013-04-09 14:44:00,
2013-04-09 08:49:00,18.3,11.4,29.66,South,177,0.0,12.0,74,0.00,,---,0.00,VWS V14.01,2013-04-09 14:49:00,
2013-04-09 08:54:00,18.5,11.9,29.66,South,176,1.0,6.0,75,0.00,,---,0.00,VWS V14.01,2013-04-09 14:54:00,
2013-04-09 08:59:00,18.5,11.6,29.66,SE,141,0.0,5.0,74,0.00,,---,0.00,VWS V14.01,2013-04-09 14:59:00,
2013-04-09 09:04:00,18.4,11.8,29.66,South,180,2.0,4.0,75,0.00,,---,0.00,VWS V14.01,2013-04-09 15:04:00,
2013-04-09 09:09:00,18.5,11.9,29.68,East,96,1.0,7.0,75,0.00,,---,0.00,VWS V14.01,2013-04-09 15:09:00,
2013-04-09 09:14:00,18.8,12.5,29.68,SSE,155,0.0,4.0,76,0.00,,---,0.00,VWS V14.01,2013-04-09 15:14:00,
2013-04-09 09:19:00,19.0,12.4,29.69,SSE,152,0.0,1.0,75,0.00,,---,0.00,VWS V14.01,2013-04-09 15:19:00,
2013-04-09 09:24:00,19.3,12.7,29.69,SE,140,4.0,5.0,75,0.00,,---,0.00,VWS V14.01,2013-04-09 15:24:00,
2013-04-09 09:29:00,19.6,13.0,29.69,SE,134,0.0,4.0,75,0.00,,---,0.00,VWS V14.01,2013-04-09 15:29:00,
2013-04-09 09:34:00,19.8,12.9,29.69,SE,125,0.0,8.0,74,0.00,,---,0.00,VWS V14.01,2013-04-09 15:34:00,
2013-04-09 09:39:00,20.3,13.4,29.69,SE,142,0.0,4.0,74,0.00,,---,0.00,VWS V14.01,2013-04-09 15:39:00,
2013-04-09 09:44:00,20.6,13.3,29.68,SE,144,1.0,4.0,73,0.00,,---,0.00,VWS V14.01,2013-04-09 15:44:00,
2013-04-09 09:49:00,20.9,13.9,29.68,SE,145,0.0,2.0,74,0.00,,---,0.00,VWS V14.01,2013-04-09 15:49:00,
2013-04-09 09:54:00,21.3,14.3,29.68,SE,146,0.0,2.0,74,0.00,,---,0.00,VWS V14.01,2013-04-09 15:54:00,
2013-04-09 09:59:00,21.7,14.7,29.68,SSE,155,0.0,5.0,74,0.00,,---,0.00,VWS V14.01,2013-04-09 15:59:00,
2013-04-09 10:04:00,21.6,14.9,29.68,WSW,248,0.0,6.0,75,0.00,,---,0.00,VWS V14.01,2013-04-09 16:04:00,
2013-04-09 10:09:00,21.5,15.1,29.68,NNE,28,0.0,5.0,76,0.00,,---,0.00,VWS V14.01,2013-04-09 16:09:00,
2013-04-09 10:14:00,21.2,14.8,29.68,NW,320,1.0,5.0,76,0.00,,---,0.00,VWS V14.01,2013-04-09 16:14:00,
2013-04-09 10:19:00,20.8,14.1,29.69,West,267,8.0,10.0,75,0.00,,---,0.00,VWS V14.01,2013-04-09 16:19:00,
2013-04-09 10:24:00,20.5,14.1,29.68,SSE,159,3.0,12.0,76,0.00,,---,0.00,VWS V14.01,2013-04-09 16:24:00,
2013-04-09 10:29:00,20.6,14.6,29.68,South,184,8.0,9.0,77,0.00,,---,0.00,VWS V14.01,2013-04-09 16:29:00,
2013-04-09 10:34:00,20.2,14.2,29.70,South,184,9.0,13.0,77,0.00,,---,0.00,VWS V14.01,2013-04-09 16:34:00,
2013-04-09 10:39:00,20.0,14.3,29.70,SSE,167,0.0,7.0,78,0.00,,---,0.00,VWS V14.01,2013-04-09 16:39:00,
2013-04-09 10:45:00,20.3,14.8,29.70,South,176,1.0,4.0,79,0.00,,---,0.00,VWS V14.01,2013-04-09 16:45:00,
2013-04-09 10:50:00,20.7,15.2,29.68,SSW,194,5.0,12.0,79,0.00,,---,0.00,VWS V14.01,2013-04-09 16:50:00,
2013-04-09 10:55:00,20.7,15.2,29.69,SSW,213,1.0,7.0,79,0.00,,---,0.00,VWS V14.01,2013-04-09 16:55:00,
2013-04-09 11:00:00,20.6,15.1,29.70,SSW,200,0.0,8.0,79,0.00,,---,0.00,VWS V14.01,2013-04-09 17:00:00,
2013-04-09 11:05:00,20.4,14.9,29.70,SSW,200,7.0,12.0,79,0.00,,---,0.00,VWS V14.01,2013-04-09 17:05:00,
2013-04-09 11:10:00,20.2,14.7,29.77,SSW,193,9.0,10.0,79,0.00,,---,0.00,VWS V14.01,2013-04-09 17:10:00,
2013-04-09 11:15:00,20.2,14.7,29.77,SSE,165,0.0,7.0,79,0.00,,---,0.00,VWS V14.01,2013-04-09 17:15:00,
2013-04-09 11:20:00,20.5,15.0,29.76,South,177,0.0,9.0,79,0.00,,---,0.00,VWS V14.01,2013-04-09 17:20:00,
2013-04-09 11:25:00,20.4,14.6,29.77,South,191,1.0,8.0,78,0.00,,---,0.00,VWS V14.01,2013-04-09 17:25:00,
2013-04-09 11:30:00,20.5,14.7,29.76,South,179,0.0,9.0,78,0.00,,---,0.00,VWS V14.01,2013-04-09 17:30:00,
2013-04-09 11:35:00,20.8,15.3,29.76,SSE,149,1.0,9.0,79,0.00,,---,0.00,VWS V14.01,2013-04-09 17:35:00,
2013-04-09 11:40:00,20.6,14.8,29.75,South,182,7.0,13.0,78,0.00,,---,0.00,VWS V14.01,2013-04-09 17:40:00,
2013-04-09 11:45:00,20.9,15.4,29.76,South,180,6.0,9.0,79,0.00,,---,0.00,VWS V14.01,2013-04-09 17:45:00,
2013-04-09 11:50:00,20.8,15.0,29.76,SSW,211,7.0,11.0,78,0.00,,---,0.00,VWS V14.01,2013-04-09 17:50:00,
2013-04-09 11:55:00,21.2,16.0,29.76,South,180,0.0,9.0,80,0.00,,---,0.00,VWS V14.01,2013-04-09 17:55:00,
2013-04-09 12:00:00,21.5,16.0,29.75,SSW,207,6.0,10.0,79,0.00,,---,0.00,VWS V14.01,2013-04-09 18:00:00,
2013-04-09 12:05:00,21.3,15.5,29.75,SSW,199,6.0,11.0,78,0.00,,---,0.00,VWS V14.01,2013-04-09 18:05:00,
2013-04-09 12:10:00,21.3,15.5,29.77,South,189,5.0,10.0,78,0.00,,---,0.00,VWS V14.01,2013-04-09 18:10:00,
2013-04-09 12:15:00,21.3,15.5,29.77,South,186,1.0,11.0,78,0.00,,---,0.00,VWS V14.01,2013-04-09 18:15:00,
2013-04-09 12:20:00,21.7,16.2,29.75,SSW,196,6.0,6.0,79,0.00,,---,0.00,VWS V14.01,2013-04-09 18:20:00,
2013-04-09 12:25:00,21.6,15.8,29.74,South,188,6.0,9.0,78,0.00,,---,0.00,VWS V14.01,2013-04-09 18:25:00,
2013-04-09 12:30:00,21.1,15.0,29.76,SSE,165,0.0,10.0,77,0.00,,---,0.00,VWS V14.01,2013-04-09 18:30:00,
2013-04-09 12:35:00,21.0,15.2,29.76,South,183,8.0,11.0,78,0.00,,---,0.00,VWS V14.01,2013-04-09 18:35:00,
2013-04-09 12:40:00,20.9,15.1,29.76,South,182,1.0,9.0,78,0.00,,---,0.00,VWS V14.01,2013-04-09 18:40:00,
2013-04-09 12:45:00,21.0,15.5,29.76,South,191,2.0,7.0,79,0.00,,---,0.00,VWS V14.01,2013-04-09 18:45:00,
2013-04-09 12:50:00,21.0,15.2,29.76,SSW,193,5.0,9.0,78,0.00,,---,0.00,VWS V14.01,2013-04-09 18:50:00,
2013-04-09 12:55:00,20.9,15.1,29.76,SSW,194,6.0,10.0,78,0.00,,---,0.00,VWS V14.01,2013-04-09 18:55:00,
2013-04-09 13:00:00,21.0,15.5,29.76,South,189,2.0,7.0,79,0.00,,---,0.00,VWS V14.01,2013-04-09 19:00:00,
2013-04-09 13:05:00,20.8,15.3,29.76,SSW,202,4.0,12.0,79,0.00,,---,0.00,VWS V14.01,2013-04-09 19:05:00,
2013-04-09 13:10:00,21.0,16.1,29.75,South,183,4.0,9.0,81,0.00,,---,0.00,VWS V14.01,2013-04-09 19:10:00,
2013-04-09 13:15:00,21.3,16.4,29.75,SSW,196,1.0,9.0,81,0.00,,---,0.00,VWS V14.01,2013-04-09 19:15:00,
2013-04-09 13:20:00,21.4,16.2,29.75,South,189,7.0,10.0,80,0.00,,---,0.00,VWS V14.01,2013-04-09 19:20:00,
2013-04-09 13:25:00,21.6,16.7,29.73,SSW,209,6.0,9.0,81,0.00,,---,0.00,VWS V14.01,2013-04-09 19:25:00,
2013-04-09 13:30:00,21.3,15.8,29.75,South,172,1.0,15.0,79,0.00,,---,0.00,VWS V14.01,2013-04-09 19:30:00,
2013-04-09 13:35:00,21.4,15.9,29.74,SSW,211,9.0,13.0,79,0.00,,---,0.00,VWS V14.01,2013-04-09 19:35:00,
2013-04-09 13:41:00,21.2,15.7,29.76,SW,222,8.0,14.0,79,0.00,,---,0.00,VWS V14.01,2013-04-09 19:41:00,
2013-04-09 13:46:00,20.8,15.6,29.76,South,184,5.0,9.0,80,0.00,,---,0.00,VWS V14.01,2013-04-09 19:46:00,
2013-04-09 13:51:00,20.2,15.0,29.76,SSW,206,9.0,14.0,80,0.00,,---,0.00,VWS V14.01,2013-04-09 19:51:00,
2013-04-09 13:56:00,20.1,15.2,29.77,SSW,206,6.0,7.0,81,0.00,,---,0.00,VWS V14.01,2013-04-09 19:56:00,
2013-04-09 14:01:00,20.3,15.4,29.77,SSW,199,1.0,9.0,81,0.00,,---,0.00,VWS V14.01,2013-04-09 20:01:00,
2013-04-09 14:06:00,20.4,15.2,29.76,South,189,5.0,9.0,80,0.00,,---,0.00,VWS V14.01,2013-04-09 20:06:00,
2013-04-09 14:11:00,20.0,14.8,29.78,SSW,202,1.0,9.0,80,0.00,,---,0.00,VWS V14.01,2013-04-09 20:11:00,
2013-04-09 14:16:00,20.0,15.1,29.79,SSW,194,4.0,11.0,81,0.00,,---,0.00,VWS V14.01,2013-04-09 20:16:00,
2013-04-09 14:21:00,19.8,15.2,29.79,SSW,199,0.0,11.0,82,0.00,,---,0.00,VWS V14.01,2013-04-09 20:21:00,
2013-04-09 14:26:00,20.3,16.0,29.79,South,190,6.0,10.0,83,0.00,,---,0.00,VWS V14.01,2013-04-09 20:26:00,
2013-04-09 14:31:00,20.4,16.1,29.79,SSW,194,7.0,11.0,83,0.00,,---,0.00,VWS V14.01,2013-04-09 20:31:00,
2013-04-09 14:36:00,20.8,16.5,29.79,South,178,5.0,9.0,83,0.00,,---,0.00,VWS V14.01,2013-04-09 20:36:00,
2013-04-09 14:41:00,21.1,16.5,29.79,SSW,198,3.0,10.0,82,0.00,,---,0.00,VWS V14.01,2013-04-09 20:41:00,
2013-04-09 14:46:00,21.5,16.9,29.77,SSW,194,6.0,11.0,82,0.00,,---,0.00,VWS V14.01,2013-04-09 20:46:00,
2013-04-09 14:51:00,21.9,17.3,29.77,SSW,199,6.0,11.0,82,0.00,,---,0.00,VWS V14.01,2013-04-09 20:51:00,
2013-04-09 14:56:00,22.3,17.6,29.77,SSE,148,1.0,12.0,82,0.00,,---,0.00,VWS V14.01,2013-04-09 20:56:00,
2013-04-09 15:01:00,22.7,17.8,29.77,SSW,211,4.0,10.0,81,0.00,,---,0.00,VWS V14.01,2013-04-09 21:01:00,
2013-04-09 15:06:00,23.0,18.3,29.77,SSW,207,5.0,10.0,82,0.00,,---,0.00,VWS V14.01,2013-04-09 21:06:00,
2013-04-09 15:11:00,23.1,18.1,29.85,SSE,168,2.0,7.0,81,0.00,,---,0.00,VWS V14.01,2013-04-09 21:11:00,
2013-04-09 15:16:00,23.3,18.3,29.85,South,191,0.0,8.0,81,0.00,,---,0.00,VWS V14.01,2013-04-09 21:16:00,
2013-04-09 15:21:00,23.6,18.6,29.83,South,191,6.0,7.0,81,0.00,,---,0.00,VWS V14.01,2013-04-09 21:21:00,
2013-04-09 15:26:00,23.7,18.7,29.83,South,186,1.0,7.0,81,0.00,,---,0.00,VWS V14.01,2013-04-09 21:26:00,
2013-04-09 15:31:00,23.1,17.6,29.85,South,191,5.0,11.0,79,0.00,,---,0.00,VWS V14.01,2013-04-09 21:31:00,
2013-04-09 15:36:00,22.1,16.6,29.85,South,190,5.0,12.0,79,0.00,,---,0.00,VWS V14.01,2013-04-09 21:36:00,
2013-04-09 15:41:00,21.6,16.4,29.85,South,180,6.0,14.0,80,0.00,,---,0.00,VWS V14.01,2013-04-09 21:41:00,
2013-04-09 15:46:00,21.5,16.6,29.86,SSW,202,3.0,12.0,81,0.00,,---,0.00,VWS V14.01,2013-04-09 21:46:00,
2013-04-09 15:51:00,21.3,16.4,29.88,SSW,192,6.0,13.0,81,0.00,,---,0.00,VWS V14.01,2013-04-09 21:51:00,
2013-04-09 15:56:00,21.2,16.6,29.87,SW,227,6.0,12.0,82,0.00,,---,0.00,VWS V14.01,2013-04-09 21:56:00,
2013-04-09 16:01:00,21.5,16.9,29.85,SW,233,10.0,13.0,82,0.00,,---,0.00,VWS V14.01,2013-04-09 22:01:00,
2013-04-09 16:06:00,21.6,17.0,29.85,SSW,207,8.0,10.0,82,0.00,,---,0.00,VWS V14.01,2013-04-09 22:06:00,
2013-04-09 16:11:00,21.3,16.1,29.88,SSW,209,3.0,14.0,80,0.00,,---,0.00,VWS V14.01,2013-04-09 22:11:00,
2013-04-09 16:16:00,21.3,16.1,29.88,South,188,6.0,12.0,80,0.00,,---,0.00,VWS V14.01,2013-04-09 22:16:00,
2013-04-09 16:22:00,21.6,16.7,29.88,SSW,194,6.0,12.0,81,0.00,,---,0.00,VWS V14.01,2013-04-09 22:22:00,
2013-04-09 16:27:00,21.5,16.3,29.88,South,183,5.0,11.0,80,0.00,,---,0.00,VWS V14.01,2013-04-09 22:27:00,
2013-04-09 16:32:00,21.1,15.9,29.89,SW,220,4.0,12.0,80,0.00,,---,0.00,VWS V14.01,2013-04-09 22:32:00,
2013-04-09 16:37:00,20.8,15.9,29.89,SSE,166,5.0,10.0,81,0.00,,---,0.00,VWS V14.01,2013-04-09 22:37:00,
2013-04-09 16:42:00,20.5,15.6,29.89,South,172,8.0,13.0,81,0.00,,---,0.00,VWS V14.01,2013-04-09 22:42:00,
2013-04-09 16:47:00,20.4,15.8,29.91,South,190,8.0,13.0,82,0.00,,---,0.00,VWS V14.01,2013-04-09 22:47:00,
2013-04-09 16:52:00,20.3,15.7,29.92,South,173,2.0,11.0,82,0.00,,---,0.00,VWS V14.01,2013-04-09 22:52:00,
2013-04-09 16:57:00,20.2,15.3,29.93,South,187,6.0,12.0,81,0.00,,---,0.00,VWS V14.01,2013-04-09 22:57:00,
2013-04-09 17:02:00,19.9,15.0,29.93,SE,144,5.0,12.0,81,0.00,,---,0.00,VWS V14.01,2013-04-09 23:02:00,
2013-04-09 17:07:00,19.7,14.8,29.93,SSE,159,2.0,14.0,81,0.00,,---,0.00,VWS V14.01,2013-04-09 23:07:00,
2013-04-09 17:12:00,19.7,14.8,29.97,SSE,159,1.0,9.0,81,0.00,,---,0.00,VWS V14.01,2013-04-09 23:12:00,
2013-04-09 17:17:00,19.4,14.5,29.97,SSE,159,0.0,12.0,81,0.00,,---,0.00,VWS V14.01,2013-04-09 23:17:00,
2013-04-09 17:22:00,18.8,13.9,29.99,South,170,3.0,14.0,81,0.00,,---,0.00,VWS V14.01,2013-04-09 23:22:00,
2013-04-09 17:27:00,18.4,13.6,29.99,South,176,5.0,11.0,81,0.00,,---,0.00,VWS V14.01,2013-04-09 23:27:00,
2013-04-09 17:32:00,18.1,13.5,30.00,South,178,1.0,12.0,82,0.00,,---,0.00,VWS V14.01,2013-04-09 23:32:00,
2013-04-09 17:37:00,17.9,13.4,30.00,SSE,161,5.0,11.0,82,0.00,,---,0.00,VWS V14.01,2013-04-09 23:37:00,
2013-04-09 17:42:00,17.8,13.2,30.00,SSW,192,4.0,9.0,82,0.00,,---,0.00,VWS V14.01,2013-04-09 23:42:00,
2013-04-09 17:47:00,17.6,12.8,30.00,SW,232,6.0,14.0,81,0.00,,---,0.00,VWS V14.01,2013-04-09 23:47:00,
2013-04-09 17:52:00,17.7,12.9,30.01,South,173,1.0,11.0,81,0.00,,---,0.00,VWS V14.01,2013-04-09 23:52:00,
2013-04-09 17:57:00,17.7,12.9,30.01,South,191,3.0,9.0,81,0.00,,---,0.00,VWS V14.01,2013-04-09 23:57:00,
2013-04-09 18:02:00,17.5,12.4,30.02,South,178,1.0,18.0,80,0.00,,---,0.00,VWS V14.01,2013-04-10 00:02:00,
2013-04-09 18:07:00,17.3,12.2,30.04,SE,135,1.0,9.0,80,0.00,,---,0.00,VWS V14.01,2013-04-10 00:07:00,
2013-04-09 18:12:00,17.2,12.1,30.08,SSE,160,10.0,11.0,80,0.00,,---,0.00,VWS V14.01,2013-04-10 00:12:00,
2013-04-09 18:17:00,16.7,11.3,30.08,South,191,8.0,13.0,79,0.00,,---,0.00,VWS V14.01,2013-04-10 00:17:00,
2013-04-09 18:22:00,16.3,11.2,30.11,SSE,167,8.0,14.0,80,0.00,,---,0.00,VWS V14.01,2013-04-10 00:22:00,
2013-04-09 18:27:00,16.0,10.9,30.11,South,180,10.0,10.0,80,0.00,,---,0.00,VWS V14.01,2013-04-10 00:27:00,
2013-04-09 18:32:00,15.7,10.6,30.11,South,176,4.0,16.0,80,0.00,,---,0.00,VWS V14.01,2013-04-10 00:32:00,
2013-04-09 18:37:00,15.5,10.4,30.11,South,177,0.0,9.0,80,0.00,,---,0.00,VWS V14.01,2013-04-10 00:37:00,
2013-04-09 18:42:00,15.4,10.4,30.12,SSW,194,0.0,10.0,80,0.00,,---,0.00,VWS V14.01,2013-04-10 00:42:00,
2013-04-09 18:47:00,15.5,10.7,30.12,South,187,7.0,7.0,81,0.00,,---,0.00,VWS V14.01,2013-04-10 00:47:00,
2013-04-09 18:52:00,15.3,10.2,30.12,SE,146,0.0,7.0,80,0.00,,---,0.00,VWS V14.01,2013-04-10 00:52:00,
2013-04-09 18:57:00,15.2,10.4,30.12,SSE,153,0.0,4.0,81,0.00,,---,0.00,VWS V14.01,2013-04-10 00:57:00,
2013-04-09 19:02:00,15.0,10.0,30.13,SSW,194,0.0,7.0,80,0.00,,---,0.00,VWS V14.01,2013-04-10 01:02:00,
2013-04-09 19:07:00,14.8,9.8,30.13,SSE,167,0.0,6.0,80,0.00,,---,0.00,VWS V14.01,2013-04-10 01:07:00,
2013-04-09 19:12:00,14.7,9.7,30.15,South,187,1.0,8.0,80,0.00,,---,0.00,VWS V14.01,2013-04-10 01:12:00,
2013-04-09 19:17:00,14.6,9.6,30.15,SSW,208,4.0,7.0,80,0.00,,---,0.00,VWS V14.01,2013-04-10 01:17:00,
2013-04-09 19:22:00,14.4,9.4,30.15,SSW,199,0.0,13.0,80,0.00,,---,0.00,VWS V14.01,2013-04-10 01:22:00,
2013-04-09 19:27:00,14.3,9.3,30.16,SSE,150,1.0,9.0,80,0.00,,---,0.00,VWS V14.01,2013-04-10 01:27:00,
2013-04-09 19:32:00,14.1,9.1,30.15,South,177,3.0,12.0,80,0.00,,---,0.00,VWS V14.01,2013-04-10 01:32:00,
2013-04-09 19:37:00,13.8,9.1,30.16,SSE,168,0.0,9.0,81,0.00,,---,0.00,VWS V14.01,2013-04-10 01:37:00,
2013-04-09 19:42:00,13.7,9.0,30.16,South,190,3.0,7.0,81,0.00,,---,0.00,VWS V14.01,2013-04-10 01:42:00,
2013-04-09 19:47:00,13.7,9.0,30.16,South,188,0.0,6.0,81,0.00,,---,0.00,VWS V14.01,2013-04-10 01:47:00,
2013-04-09 19:52:00,13.6,8.9,30.16,South,183,0.0,8.0,81,0.00,,---,0.00,VWS V14.01,2013-04-10 01:52:00,
2013-04-09 19:57:00,13.6,8.9,30.16,South,187,1.0,5.0,81,0.00,,---,0.00,VWS V14.01,2013-04-10 01:57:00,
2013-04-09 20:02:00,13.6,9.1,30.16,SSW,193,2.0,2.0,82,0.00,,---,0.00,VWS V14.01,2013-04-10 02:02:00,
2013-04-09 20:07:00,13.5,9.0,30.16,South,190,0.0,5.0,82,0.00,,---,0.00,VWS V14.01,2013-04-10 02:07:00,
2013-04-09 20:12:00,13.5,9.0,30.18,South,183,0.0,0.0,82,0.00,,---,0.00,VWS V14.01,2013-04-10 02:12:00,
2013-04-09 20:17:00,13.4,8.9,30.20,SSW,192,0.0,0.0,82,0.00,,---,0.00,VWS V14.01,2013-04-10 02:17:00,
2013-04-09 20:22:00,13.2,8.8,30.21,South,190,5.0,5.0,82,0.00,,---,0.00,VWS V14.01,2013-04-10 02:22:00,